Location: Bonneuil
(46.1010°N, 2.9693°E)
Time: 11:31:32
(UTC+00:00)

Abrixas rocket - Pass Details

Date: 09 April 2020
Orbit: 344 x 351 km, 48.4° (Epoch: 03 June)

Event Time Altitude Azimuth Distance (km) Brightness Sun altitude
Rises 19:51:38 0° 288° (WNW) 2,167 7.6 -14.4°
Reaches altitude 10° 19:53:39 10° 285° (WNW) 1,325 6.1 -14.7°
Maximum altitude 19:56:36 65° 203° (SSW) 395 2.0 -15.2°
Enters shadow 19:57:24 41° 138° (SE) 526 2.3 -15.3°
